Powrót do katalogu

STARLINK-32661

AktywnyŁącznośćVLEO
NORAD 62899·PAYLOAD·🇺🇸 United States

Wystrzelony Feb 4, 2025 z Cape Canaveral Space Force Station

Loading…

Następne Przeloty (najbliższe 24 godziny)

TLE

ŚwieżeSource: CelesTrak SupGP

Epoka: Sep 14, 2026, 20:43 UTC

1 62899C 25024W   26257.86368056 -.00008960  00000+0 -32460-3 0  2570
2 62899  43.0016 336.9533 0001477 272.0132 255.2468 15.27575897    17

Śledź STARLINK-32661 w czasie rzeczywistym z AllMySat

Download on the App Store